• In Lithuania
  • List of Countries
  • For 7 days
  • Water Temperature
  • Satellite Maps
  • Weather Map
  • Weather Widgets
  • user-avatar
    Login

    Hourly Weather Cachungo

    Today, 26 May, Saturday

    Time Temperature Precipitation Wind Pressure Humidity
    00:00 +25°C° 0 mm 3 mps 758 mmHg 73%
    01:00 +25°C° 0 mm 3 mps 757 mmHg 74%
    02:00 +25°C° 0 mm 3 mps 757 mmHg 76%
    03:00 +24°C° 0 mm 3 mps 757 mmHg 77%
    04:00 +24°C° 0 mm 3 mps 757 mmHg 78%
    05:00 +24°C° 0 mm 3 mps 756 mmHg 79%
    06:00 +25°C° 0 mm 3 mps 757 mmHg 71%
    07:00 +27°C° 0 mm 3 mps 757 mmHg 62%
    08:00 +28°C° 0 mm 3 mps 757 mmHg 54%
    09:00 +31°C° 0 mm 3 mps 757 mmHg 45%
    10:00 +34°C° 0 mm 3 mps 757 mmHg 35%
    11:00 +37°C° 0 mm 3 mps 757 mmHg 26%
    12:00 +38°C° 0 mm 4 mps 757 mmHg 25%
    13:00 +38°C° 0 mm 4 mps 756 mmHg 25%
    14:00 +40°C° 0 mm 5 mps 756 mmHg 24%
    15:00 +39°C° 0 mm 5 mps 755 mmHg 27%
    16:00 +36°C° 0 mm 5 mps 755 mmHg 31%
    17:00 +34°C° 0 mm 5 mps 755 mmHg 35%
    18:00 +32°C° 0 mm 5 mps 755 mmHg 42%
    19:00 +29°C° 0 mm 5 mps 756 mmHg 50%
    20:00 +27°C° 0 mm 4 mps 756 mmHg 57%
    21:00 +27°C° 0 mm 4 mps 757 mmHg 60%
    22:00 +26°C° 0 mm 4 mps 757 mmHg 63%
    23:00 +25°C° 0 mm 4 mps 758 mmHg 66%

    Tomorrow, 27 May, Sunday

    Time Temperature Precipitation Wind Pressure Humidity
    00:00 +25°C° 0 mm 4 mps 758 mmHg 68%
    01:00 +25°C° 0 mm 3 mps 757 mmHg 70%
    02:00 +24°C° 0 mm 3 mps 757 mmHg 72%
    03:00 +24°C° 0 mm 3 mps 757 mmHg 73%
    04:00 +23°C° 0 mm 4 mps 757 mmHg 74%
    05:00 +23°C° 0 mm 4 mps 757 mmHg 75%
    06:00 +25°C° 0 mm 4 mps 757 mmHg 68%
    07:00 +26°C° 0 mm 3 mps 758 mmHg 61%
    08:00 +28°C° 0 mm 3 mps 758 mmHg 54%
    09:00 +31°C° 0 mm 3 mps 758 mmHg 44%
    10:00 +35°C° 0 mm 3 mps 758 mmHg 35%
    11:00 +38°C° 0 mm 3 mps 758 mmHg 25%
    12:00 +38°C° 0 mm 4 mps 758 mmHg 25%
    13:00 +40°C° 0 mm 4 mps 757 mmHg 25%
    14:00 +40°C° 0 mm 5 mps 756 mmHg 25%
    15:00 +39°C° 0 mm 5 mps 756 mmHg 30%
    16:00 +36°C° 0 mm 6 mps 756 mmHg 35%
    17:00 +34°C° 0 mm 6 mps 756 mmHg 40%
    18:00 +32°C° 0 mm 6 mps 756 mmHg 48%
    19:00 +29°C° 0 mm 6 mps 756 mmHg 56%
    20:00 +26°C° 0 mm 5 mps 757 mmHg 63%
    21:00 +26°C° 0 mm 5 mps 757 mmHg 66%
    22:00 +26°C° 0 mm 4 mps 758 mmHg 68%
    23:00 +25°C° 0 mm 4 mps 758 mmHg 70%

    Day after tomorrow, 28 May, Monday

    Time Temperature Precipitation Wind Pressure Humidity
    00:00 +25°C° 0 mm 4 mps 758 mmHg 72%
    01:00 +25°C° 0 mm 4 mps 757 mmHg 73%
    02:00 +23°C° 0 mm 4 mps 757 mmHg 75%
    03:00 +23°C° 0 mm 4 mps 757 mmHg 76%
    04:00 +23°C° 0 mm 4 mps 757 mmHg 77%
    05:00 +22°C° 0 mm 4 mps 757 mmHg 78%
    06:00 +25°C° 0 mm 3 mps 757 mmHg 71%
    07:00 +26°C° 0 mm 3 mps 758 mmHg 63%
    08:00 +28°C° 0 mm 2 mps 758 mmHg 55%
    09:00 +31°C° 0 mm 2 mps 758 mmHg 46%
    10:00 +35°C° 0 mm 2 mps 758 mmHg 36%
    11:00 +38°C° 0 mm 2 mps 758 mmHg 27%
    12:00 +38°C° 0 mm 3 mps 757 mmHg 28%
    13:00 +38°C° 0 mm 3 mps 757 mmHg 29%
    14:00 +40°C° 0 mm 4 mps 756 mmHg 30%
    15:00 +36°C° 0 mm 5 mps 755 mmHg 38%
    16:00 +34°C° 0 mm 5 mps 755 mmHg 46%
    17:00 +32°C° 0 mm 5 mps 755 mmHg 54%
    18:00 +29°C° 0 mm 5 mps 756 mmHg 59%
    19:00 +28°C° 0 mm 4 mps 756 mmHg 64%
    20:00 +27°C° 0 mm 4 mps 757 mmHg 69%
    21:00 +26°C° 0 mm 4 mps 758 mmHg 70%
    22:00 +26°C° 0 mm 3 mps 758 mmHg 71%
    23:00 +26°C° 0 mm 3 mps 758 mmHg 71%

    29 May, Tuesday

    Time Temperature Precipitation Wind Pressure Humidity
    00:00 +25°C° 0 mm 3 mps 758 mmHg 72%
    01:00 +25°C° 0 mm 3 mps 757 mmHg 73%
    02:00 +25°C° 0 mm 3 mps 756 mmHg 74%
    03:00 +25°C° 0 mm 2 mps 756 mmHg 76%
    04:00 +25°C° 0 mm 2 mps 756 mmHg 78%
    05:00 +24°C° 0 mm 1 mps 756 mmHg 80%
    06:00 +26°C° 0 mm 2 mps 757 mmHg 73%
    07:00 +27°C° 0 mm 2 mps 757 mmHg 67%
    08:00 +28°C° 0 mm 2 mps 758 mmHg 61%
    09:00 +30°C° 0 mm 2 mps 758 mmHg 54%
    10:00 +33°C° 0 mm 3 mps 758 mmHg 48%
    11:00 +35°C° 0 mm 3 mps 758 mmHg 41%
    12:00 +35°C° 0 mm 4 mps 757 mmHg 41%
    13:00 +36°C° 0 mm 4 mps 756 mmHg 40%
    14:00 +36°C° 0 mm 5 mps 756 mmHg 39%
    15:00 +35°C° 0 mm 5 mps 756 mmHg 42%
    16:00 +34°C° 0 mm 5 mps 756 mmHg 45%
    17:00 +33°C° 0 mm 5 mps 755 mmHg 48%
    18:00 +30°C° 0 mm 5 mps 756 mmHg 55%
    19:00 +29°C° 0 mm 4 mps 757 mmHg 62%
    20:00 +27°C° 0 mm 4 mps 757 mmHg 69%
    21:00 +27°C° 0 mm 4 mps 757 mmHg 70%
    22:00 +27°C° 0 mm 4 mps 758 mmHg 71%
    23:00 +26°C° 0 mm 4 mps 758 mmHg 72%

    30 May, Wednesday

    Time Temperature Precipitation Wind Pressure Humidity
    00:00 +26°C° 0 mm 4 mps 757 mmHg 73%
    01:00 +26°C° 0 mm 4 mps 757 mmHg 74%
    02:00 +26°C° 0 mm 3 mps 756 mmHg 75%
    03:00 +26°C° 0 mm 3 mps 756 mmHg 75%
    04:00 +26°C° 0 mm 3 mps 757 mmHg 75%
    05:00 +26°C° 0 mm 2 mps 757 mmHg 75%
    06:00 +27°C° 0 mm 2 mps 757 mmHg 70%
    07:00 +28°C° 0 mm 2 mps 758 mmHg 65%
    08:00 +29°C° 0 mm 2 mps 758 mmHg 60%
    09:00 +31°C° 0 mm 3 mps 758 mmHg 55%
    10:00 +34°C° 0 mm 3 mps 758 mmHg 49%
    11:00 +36°C° 0 mm 4 mps 758 mmHg 43%
    12:00 +36°C° 0 mm 4 mps 757 mmHg 43%
    13:00 +36°C° 0 mm 4 mps 757 mmHg 43%
    14:00 +37°C° 0 mm 5 mps 756 mmHg 43%
    15:00 +36°C° 0 mm 5 mps 756 mmHg 46%
    16:00 +34°C° 0 mm 5 mps 756 mmHg 50%
    17:00 +33°C° 0 mm 4 mps 756 mmHg 53%
    18:00 +32°C° 0 mm 4 mps 756 mmHg 59%
    19:00 +29°C° 0 mm 4 mps 757 mmHg 65%
    20:00 +28°C° 0 mm 4 mps 757 mmHg 71%
    21:00 +28°C° 0.2 mm 4 mps 758 mmHg 72%
    22:00 +27°C° 0.2 mm 3 mps 758 mmHg 74%
    23:00 +27°C° 0.2 mm 3 mps 758 mmHg 76%

    31 May, Thursday

    Time Temperature Precipitation Wind Pressure Humidity
    00:00 +27°C° 0.7 mm 2 mps 758 mmHg 78%
    01:00 +26°C° 0.7 mm 2 mps 758 mmHg 79%
    02:00 +26°C° 0.7 mm 1 mps 757 mmHg 81%
    03:00 +26°C° 0.7 mm 2 mps 757 mmHg 81%
    04:00 +26°C° 0.7 mm 3 mps 757 mmHg 81%
    05:00 +26°C° 0.7 mm 4 mps 757 mmHg 80%
    06:00 +27°C° 0 mm 3 mps 757 mmHg 74%
    07:00 +28°C° 0 mm 3 mps 758 mmHg 69%
    08:00 +29°C° 0 mm 3 mps 758 mmHg 63%
    09:00 +31°C° 0 mm 3 mps 758 mmHg 56%
    10:00 +34°C° 0 mm 3 mps 758 mmHg 48%
    11:00 +36°C° 0 mm 3 mps 758 mmHg 41%
    12:00 +37°C° 0 mm 4 mps 758 mmHg 38%
    13:00 +39°C° 0 mm 5 mps 757 mmHg 35%
    14:00 +40°C° 0 mm 5 mps 757 mmHg 32%
    15:00 +37°C° 0 mm 5 mps 757 mmHg 35%
    16:00 +36°C° 0 mm 6 mps 756 mmHg 37%
    17:00 +35°C° 0 mm 6 mps 756 mmHg 40%
    18:00 +33°C° 0 mm 6 mps 757 mmHg 44%
    19:00 +32°C° 0 mm 5 mps 757 mmHg 49%
    20:00 +29°C° 0 mm 5 mps 758 mmHg 54%
    21:00 +28°C° 0 mm 5 mps 758 mmHg 56%
    22:00 +28°C° 0 mm 4 mps 758 mmHg 59%
    23:00 +27°C° 0 mm 4 mps 758 mmHg 62%
    Show more